Regional Weather Roundup
Issued by NWS San Angelo, TX

Home | Current Version | Previous Version | Text Only | Print | Product List | Glossary On
Versions: 1 2 3 4 5 6 7 8 9 10 11 12 13 14 15 16 17 18 19 20 21 22 23 24 25 26 27 28 29 30 31 32 33 34 35 36 37 38 39 40 41 42 43 44 45 46 47 48 49 50
000
ASUS44 KSJT 260111
RWRSJT
WEST CENTRAL TEXAS REGIONAL WEATHER ROUNDUP
NATIONAL WEATHER SERVICE SAN ANGELO TX
800 PM CDT MON JUL 25 2016

NOTE: "FAIR" INDICATES FEW OR NO CLOUDS BELOW 12,000 FEET WITH NO
SIGNIFICANT WEATHER AND/OR OBSTRUCTIONS TO VISIBILITY.

TXZ049-054-064>066-071>073-076>078-098-099-113-114-127-128-139-140-
154-155-168>170-260200
...LOCATIONS ACROSS WEST CENTRAL TEXAS...

CITY           SKY/WX    TMP DP  RH WIND       PRES   REMARKS
SAN ANGELO     CLEAR     97  60  29 E7        29.92R
ABILENE        CLEAR     95  63  34 E12       29.94R
DYESS AFB      CLEAR     95  66  37 E12       29.92R
JUNCTION       PTCLDY    97  61  30 E8        29.90R
SWEETWATER     CLEAR     95  58  29 E10       29.98S
BROWNWOOD      CLOUDY    90  66  45 E13G20    29.93S
COLEMAN        CLEAR     95  61  32 E17G24    29.94R
SONORA         CLEAR     95  57  28 NE7       29.96R
OZONA          FAIR      97  52  21 E12G17    29.95R
BRADY          NOT AVBL
$$

TEXAS PANHANDLE/OKLAHOMA PANHANDLE

CITY           SKY/WX    TMP DP  RH WIND       PRES   REMARKS
AMARILLO       MOCLDY    81  60  48 SE7       30.09R
BORGER         CLOUDY    90  65  43 SE10      30.05R
CANADIAN       CLOUDY    91  70  51 E7        30.00F
DALHART        SUNNY     86  62  44 E9        30.10S
DUMAS          PTCLDY    87  63  44 E12       30.08R
GUYMON         NOT AVBL
HEREFORD       MOCLDY    78  65  66 CALM      30.09S
PAMPA          CLOUDY    88  66  48 E7        30.07S
PERRYTON       PTCLDY    90  67  46 E5        30.05S
$$

SOUTHERN PANHANDLE/SOUTH PLAINS/ROLLING PLAINS

CITY           SKY/WX    TMP DP  RH WIND       PRES   REMARKS
LUBBOCK        MOCLDY    84  58  40 NE13      30.04S
SNYDER           N/A     95  60  30 E9        29.97R
CHILDRESS      CLOUDY    83  66  56 SW15      29.97F
SEMINOLE       CLEAR     95  53  24 E10       30.02R
$$

PERMIAN BASIN

CITY           SKY/WX    TMP DP  RH WIND       PRES   REMARKS
MIDLAND        CLEAR     98  56  24 E13       29.96R
ODESSA         CLEAR     96  56  26 SE15      29.98R
WINK           CLEAR     99  55  23 SE15      29.92S
$$

FAR WEST/SOUTHWEST MOUNTAINS/TRANS PECOS

CITY           SKY/WX    TMP DP  RH WIND       PRES   REMARKS
ALPINE         CLEAR     91  49  23 SE12      30.11S
DRYDEN           N/A     98  60  28 SE12      29.88R
EL PASO        FAIR      98  45  16 E14       29.96S
FORT STOCKTON  PTCLDY    95  56  26 E8        29.95R
GUADALUPE PASS SUNNY     86  48  26 E23       30.14S
MARFA          MOSUNNY   89  51  27 E16       30.09R
PECOS          CLEAR     99  54  22 E16       29.91S
$$

DALLAS/FORT WORTH METROPLEX

CITY           SKY/WX    TMP DP  RH WIND       PRES   REMARKS
DFW AIRPORT    CLOUDY    84  73  69 E5        29.92R
FTW MEACHAM    MOCLDY    89  71  55 E10       29.92R
DAL-EXECUTIVE  MOCLDY    85  71  63 SE10      29.92R
GRAND PRAIRIE  CLEAR     88  70  55 E6        29.93S
ADDISON        CLOUDY    82  70  65 E9        29.93R
MESQUITE       LGT RAIN  77  75  94 E5        29.93R
LANCASTER      CLOUDY    86  73  66 SE8       29.93S
$$

NORTH CENTRAL TEXAS

CITY           SKY/WX    TMP DP  RH WIND       PRES   REMARKS
SHRMAN/DENISON MOCLDY    86  73  64 SE8       29.94S
GAINESVILLE    CLOUDY    85  70  60 SE14      29.96R
BRIDGEPORT     CLOUDY    88  71  56 SE10      29.94R
DENTON         CLOUDY    85  72  65 SE12      29.93R
WAXAHACHIE     CLOUDY    83  73  72 E5        29.94S
GRANBURY       PTCLDY    92  67  44 E13       29.93S
$$

WESTERN NORTH TEXAS

CITY           SKY/WX    TMP DP  RH WIND       PRES   REMARKS
WICHITA FALLS  CLOUDY    89  69  51 SE8       29.91S
VERNON         CLEAR     96  61  31 SE17      29.92R
BRECKENRIDGE   CLEAR     95  65  36 E18       29.92R
COMANCHE       MOCLDY    87  70  57 SE9       29.95R
$$

CENTRAL AND SOUTH CENTRAL TEXAS

CITY           SKY/WX    TMP DP  RH WIND       PRES   REMARKS
AUSTIN/BERGSTM TSTM      79  75  87 NE20G30   29.95R FOG
WACO           CLOUDY    77  72  84 SE12      29.94F
HILLSBORO      CLOUDY    79  73  80 SE7       29.94R
TEMPLE         CLOUDY    79  73  82 E20       29.97R
KILLEEN-GRAY   LGT RAIN  80  72  76 E10       29.96F
FORT HOOD      LGT RAIN  77  73  88 SE8       29.94S FOG
GEORGETOWN     MOCLDY    81  73  78 E12       29.98R
LAGO VISTA     FAIR      76  72  87 E10       29.97R
SAN MARCOS     CLOUDY    82  72  69 E20G26    29.96R
NEW BRAUNFELS  TSTM      83  73  72 E18G35    29.88R
RANDOLPH AFB   PTCLDY    94  68  41 SE6       29.86R
SAN ANTONIO    MOCLDY    94  68  42 NE3       29.87R
STINSON        PTCLDY    96  69  41 NE5       29.84R
PLEASANTON     NOT AVBL
LA GRANGE        N/A    N/A N/A N/A SE6       29.93S
GIDDINGS       CLOUDY    78  72  82 SE9       29.99R
$$

EAST TEXAS

CITY           SKY/WX    TMP DP  RH WIND       PRES   REMARKS
PARIS          PTCLDY    86  66  51 E10       29.93S
CLARKSVILLE    NOT AVBL
TYLER          MOCLDY    83  75  77 SW5       29.94R
LONGVIEW       CLOUDY    88  75  65 SE5       29.91R
PALESTINE      MOCLDY    81  74  80 SE5       29.96R
NACOGDOCHES    CLOUDY   N/A N/A N/A N5        29.95R THUNDER
$$

TEXAS HILL COUNTRY AND EDWARDS PLATEAU

CITY           SKY/WX    TMP DP  RH WIND       PRES   REMARKS
LLANO          TSTM      75  75 100 SE9       29.99R
HORSESHOE BAY  TSTM      76  73  90 SE8G17    29.95R
KERRVILLE      CLEAR     92  70  49 E8        29.92R
FREDERICKSBRG  CLOUDY    89  63  41 SE7       29.93R
ROCKSPRINGS    MOCLDY    91  63  38 SE7       29.96R
HONDO          PTCLDY    95  67  39 E12       29.87R
UVALDE         CLEAR     95  64  35 SE7       29.86R
DEL RIO        PTCLDY    99  61  28 SE10      29.82R
$$

SOUTHEAST TEXAS

CITY           SKY/WX    TMP DP  RH WIND       PRES   REMARKS
COLLEGE STN    CLOUDY    79  74  84 SE7       29.95S
CALDWELL       CLOUDY    79  75  89 SE9G17    29.99R
CROCKETT       CLOUDY    75  75 100 CALM      29.97S
BRENHAM        LGT RAIN  77  75  94 SE8       29.96F
HUNTSVILLE     LGT RAIN  75  73  93 CALM      29.94S
CONROE         LGT RAIN  77  74  90 CALM      29.94R
HOUSTON BUSH   CLOUDY    84  73  69 S9        29.93S
HOUSTON HOBBY  CLOUDY    81  76  84 CALM      29.94R
PERLAND        CLOUDY    83  77  82 CALM      29.95R
WHARTON        RAIN      74  74  97 CALM      29.93F
$$

THE UPPER TEXAS COAST

CITY           SKY/WX    TMP DP  RH WIND       PRES   REMARKS
ORANGE         CLOUDY    77  75  93 CALM      29.95R FOG
PORT ARTHUR    CLOUDY    78  77  96 W5        29.93R
GALVESTON      CLOUDY    81  77  88 CALM      29.93R
ANGLETON       CLOUDY    83  77  82 CALM      29.93R
BAY CITY       CLOUDY    82  73  74 E3        29.93R
$$

TEXAS COASTAL BEND, RIO GRANDE PLAINS DEEP SOUTH TEXAS

CITY           SKY/WX    TMP DP  RH WIND       PRES   REMARKS
VICTORIA       CLOUDY    86  72  62 SE9       29.91R
BEEVILLE       FAIR      88  75  66 SE9       29.87R
ROCKPORT       MOCLDY    86  76  71 SE12      29.88R
PORT ARANSAS   MOCLDY    85  79  80 S13       29.89R
PORT LAVACA    CLOUDY    85  78  80 SE12      29.90R
CORPUS CHRISTI CLOUDY    87  77  72 SE15G23   29.87R
KINGSVILLE NAS CLOUDY    87  79  76 SE16      29.86R
COTULLA        CLEAR    101  60  25 E13       29.81R
LAREDO         CLOUDY    99  66  33 E14       29.81R
BROWNSVILLE    CLOUDY    86  76  71 SE17      29.87R
PORT ISABEL    CLOUDY    87  76  69 SE17      29.86S
HEBBRONVILLE   CLEAR     93  72  49 SE16G24   29.85R
MCALLEN        CLOUDY    92  72  51 SE16G29   29.84R
WESLACO        MOCLDY    86   1   4 SE15G24   29.84R
FALFURRIAS     PTCLDY    91  74  57 SE15      29.84R
EDINBURG       CLOUDY    93  69  45 SE20      29.84R
$$




USA.gov is the U.S. government's official web portal to all federal, state and local government web resources and services.